Change the Weather History Date:

Saturday, December 21, 2013

  Actual Average Record
Temperature  
Mean Temperature 22 °F -  
Max Temperature 24 °F 29 °F 50 °F (1967)
Min Temperature 21 °F 15 °F -22 °F (1958)
Degree Days  
Heating Degree Days 42    
Moisture  
Dew Point 19 °F    
Average Humidity 84    
Maximum Humidity 92    
Minimum Humidity 77    
Precipitation  
Precipitation 0.00 in - - ()
Sea Level Pressure  
Sea Level Pressure 29.94 in    
Wind  
Wind Speed 6 mph (NE)    
Max Wind Speed 16 mph    
Max Gust Speed -    
Visibility 10 miles    
Events      
Averages and records for this station are not official NWS values.
T = Trace of Precipitation, MM = Missing Value Source: NWS Daily Summary

Daily Weather History Graph

Daily Weather History Graph

Search for Another Location

Airport or City:

Trip Planner

Search our weather history database for the weather conditions in past years. The results will help you decide how hot, cold, wet, or windy it might be!

Date:

Astronomy

Dec. 21, 2013 Rise Set
Actual Time 8:16 AM EST 4:58 PM EST
Civil Twilight 7:42 AM EST 5:32 PM EST
Nautical Twilight 7:04 AM EST 6:10 PM EST
Astronomical Twilight 6:28 AM EST 6:46 PM EST
Moon 9:25 PM EST (12/21) 10:31 AM EST (12/21)
Length of Visible Light 9h 50m
Length of Day
8h 41m
Waning Gibbous, 84% of the Moon is Illuminated
Dec 21
Waning Gibbous
Dec 25
Last Quarter
Jan 1
New
Jan 7
First Quarter
Jan 15
Full

Hourly Weather History & Observations

Time (EST) Temp. Windchill Dew Point Humidity Pressure Visibility Wind Dir Wind Speed Gust Speed Precip Events Conditions
12:54 AM 21.9 °F 14.5 °F 19.0 °F 89% 29.86 in 10.0 mi NE 5.8 mph - N/A   Overcast
1:54 AM 21.9 °F 14.5 °F 19.0 °F 89% 29.86 in 10.0 mi NNE 5.8 mph - N/A   Overcast
2:54 AM 21.9 °F 15.7 °F 19.0 °F 89% 29.87 in 10.0 mi NNE 4.6 mph - N/A   Overcast
3:54 AM 21.9 °F 13.4 °F 19.0 °F 89% 29.88 in 10.0 mi North 6.9 mph - N/A   Overcast
4:28 AM 21.9 °F 13.4 °F 19.9 °F 92% 29.83 in 10.0 mi NNE 6.9 mph - N/A   Overcast
4:54 AM 21.9 °F 11.7 °F 19.0 °F 89% 29.88 in 10.0 mi NNE 9.2 mph - N/A   Overcast
5:54 AM 21.0 °F 12.4 °F 18.0 °F 88% 29.90 in 10.0 mi NNE 6.9 mph - N/A   Overcast
6:54 AM 21.0 °F 14.6 °F 18.0 °F 88% 29.91 in 10.0 mi NNE 4.6 mph - N/A   Overcast
7:54 AM 21.0 °F 16.2 °F 18.0 °F 88% 29.91 in 10.0 mi NNE 3.5 mph - N/A   Overcast
8:17 AM 21.0 °F - 18.0 °F 88% 29.90 in 10.0 mi Calm Calm - N/A   Overcast
8:51 AM 21.2 °F - 17.6 °F 86% 29.92 in 10.0 mi Calm Calm - N/A   Overcast
8:54 AM 21.0 °F - 18.0 °F 88% 29.96 in 10.0 mi Calm Calm - N/A   Overcast
9:54 AM 21.9 °F - 18.0 °F 85% 29.96 in 10.0 mi Calm Calm - N/A   Overcast
10:05 AM 21.9 °F 15.7 °F 18.0 °F 85% 29.92 in 10.0 mi NE 4.6 mph - N/A   Overcast
10:29 AM 21.9 °F 13.4 °F 18.0 °F 85% 29.91 in 10.0 mi ENE 6.9 mph - N/A   Mostly Cloudy
10:46 AM 21.9 °F 14.5 °F 18.0 °F 85% 29.93 in 10.0 mi ENE 5.8 mph - N/A   Scattered Clouds
10:54 AM 21.9 °F 14.5 °F 18.0 °F 85% 29.97 in 10.0 mi East 5.8 mph - N/A   Mostly Cloudy
11:04 AM 21.9 °F 14.5 °F 18.0 °F 85% 29.93 in 10.0 mi ENE 5.8 mph - N/A   Partly Cloudy
11:46 AM 23.0 °F 15.8 °F 19.0 °F 85% 29.93 in 10.0 mi East 5.8 mph - N/A   Mostly Cloudy
11:54 AM 24.1 °F 16.0 °F 19.0 °F 81% 29.97 in 10.0 mi NE 6.9 mph - N/A   Mostly Cloudy
12:28 PM 24.1 °F 17.0 °F 18.0 °F 77% 29.92 in 10.0 mi NE 5.8 mph - N/A   Overcast
12:54 PM 24.1 °F 15.2 °F 19.0 °F 81% 29.95 in 10.0 mi ENE 8.1 mph - N/A   Overcast
1:54 PM 24.1 °F 15.2 °F 19.9 °F 84% 29.95 in 10.0 mi ENE 8.1 mph - N/A   Overcast
2:54 PM 24.1 °F 13.7 °F 19.0 °F 81% 29.97 in 10.0 mi ENE 10.4 mph - N/A   Overcast
3:54 PM 24.1 °F 15.2 °F 19.0 °F 81% 30.00 in 10.0 mi NE 8.1 mph - N/A   Overcast
4:54 PM 24.1 °F 16.0 °F 19.9 °F 84% 30.02 in 10.0 mi NE 6.9 mph - N/A   Overcast
5:54 PM 24.1 °F 15.2 °F 19.0 °F 81% 30.00 in 10.0 mi NE 8.1 mph - N/A   Overcast
6:54 PM 23.0 °F 12.4 °F 18.0 °F 81% 30.01 in 10.0 mi ENE 10.4 mph - N/A   Overcast
7:52 PM 23.0 °F 13.1 °F 17.6 °F 80% 29.98 in 10.0 mi NE 9.2 mph - N/A   Overcast
7:54 PM 23.0 °F 13.1 °F 18.0 °F 81% 30.02 in 10.0 mi NE 9.2 mph - N/A   Overcast
8:54 PM 24.1 °F 15.2 °F 18.0 °F 77% 30.03 in 10.0 mi ENE 8.1 mph - N/A   Overcast
9:54 PM 24.1 °F 13.1 °F 19.0 °F 81% 30.00 in 10.0 mi ENE 11.5 mph - N/A   Overcast
10:54 PM 24.1 °F 12.0 °F 19.0 °F 81% 29.99 in 10.0 mi ENE 13.8 mph - N/A   Overcast
11:26 PM 24.1 °F 11.5 °F 19.0 °F 81% 29.94 in 10.0 mi ENE 15.0 mph - N/A   Overcast
11:54 PM 24.1 °F 11.0 °F 19.0 °F 81% 29.94 in 10.0 mi ENE 16.1 mph - N/A   Overcast